THOR ABLESTAR DEB, 126

Orbit data source: Space-Track

THOR ABLESTAR DEB, 126 is space debris in LEO originally from a launch on Thu, 29 Jun 1961 UTC launched from the Air Force Eastern Test Range (AFETR). Debris objects in space refer to the collection of defunct objects orbiting the Earth. Examples of debris include non-operational satellites, rocket bodies, and fragments generated from explosions, collisions, or faulty payload assembly.

Loading next visibility...
Identifier
126, 1961-015L
Orbit
LEO
Last TLE update
9 hours ago
Origin
Manufacturer
Unknown
Mission
Spacecraft
Bus & Motor
Unknown
Mass
Unknown
Launch date (UTC)
1961-06-29 (64 years ago)
Launch vehicle
Unknown
Launch site
Air Force Eastern Test Range (AFETR)
Object type
Payload
Rocket body
Debris
Shape & HBR
Unknown
Radar Cross Section
0.360 m², Medium (>0.1 m² and < 1m²)

Expand to show TLE details & history

TLE from 9 hours ago
0 THOR ABLESTAR DEB
1 00126U 61015L   25128.89484921  .00001977  00000-0  59875-3 0  9996
2 00126  66.7086  95.4144 0061685 203.0384 156.7953 14.43307001306229
Epoch: 2025-05-08T21:28Z
Definitive object data (Epoch: 2025-05-08T21:28:34.971Z)
Latitude
-0.00006°
Longitude
-93.69013°
Altitude
790.159 km
Speed
7.438 km/s
True Right ascension
06h 21m 39s
True Declination
0° 00' 00"
Sunlit
Object was in daylight at TLE epoch
Visualization TLE readout
Latitude
55.64509°
Longitude
46.53834°
Altitude
753.111 km
Speed
7.485 km/s
Apparent Right ascension
23h 09m 01s
Apparent Declination
47° 04' 33"
Sunlit
Object is in daylight
Visualization observer readout
Local Sidereal Time
14:28:45
Azimuth
31.729° NE
Elevation
7.68°
Doppler factor
1
Orbital elements
Apogee altitude
789.902 km
Perigee altitude
702.012 km
Semi-major axis
7,124.094 km
Eccentricity
0.0061685
Inclination
66.7086°
RAAN
95.4144°
Arg. of periapsis
203.0384°
True anomaly
157.07185°
Mean anomaly
156.7953°
Eccentric anomaly
156.93377°
Mean motion
3.60951 °/min
BSTAR
0.00059875
Orbital period
99.74 mins
Loading maneuver chart data...
Loading SW <> Apogee altitude chart data...

THOR ABLESTAR DEB Visibility forecast

Observer location: undefined°, undefined°

Span
Click to sort rows by Start time (UTC) header in descending order
Start Az.
Max El. time (UTC)
Max El. Az.
Max El.
End time (UTC)
End Az.
8 mins2025-05-09 07:59:56.945Z347.399° N2025-05-09 08:03:56.945Z52.329° ENE33.577°2025-05-09 08:07:56.945Z121.528° SE
6 mins2025-05-09 09:43:56.945Z288.428° WNW2025-05-09 09:45:56.945Z257.248° W21.902°2025-05-09 09:49:56.945Z201.256° SSW
8 mins2025-05-09 22:32:56.945Z169.827° S2025-05-09 22:36:56.945Z105.062° ESE30.412°2025-05-09 22:40:56.945Z49.16° ENE
8 mins2025-05-10 00:15:56.945Z255.31° W2025-05-10 00:18:56.945Z301.893° NW28.04°2025-05-10 00:23:56.945Z11.248° NNE
|